| time (UTC) | temp F | wind direction | speed MPH | gust MPH | rain 1hr in | rain 24hr in | rain mn in | humidity % | barometer mb |
| 20260507171858 | 53 | 18 | 6.0 | 11.0 | 0.08 | 0.91 | 0.91 | 85 | 1010.2 |
| 20260507171409 | 53 | 13 | 4.0 | 11.0 | 0.09 | 0.91 | 0.91 | 84 | 1010.2 |
| 20260507170906 | 53 | 39 | 3.0 | 10.0 | 0.10 | 0.90 | 0.90 | 84 | 1010.1 |
| 20260507170351 | 53 | 51 | 3.0 | 11.0 | 0.12 | 0.90 | 0.90 | 84 | 1010.1 |
| 20260507165919 | 53 | 5 | 4.0 | 13.0 | 0.13 | 0.90 | 0.90 | 84 | 1010.0 |
| 20260507165423 | 53 | 336 | 7.0 | 13.0 | 0.14 | 0.89 | 0.89 | 85 | 1009.8 |
| 20260507164855 | 53 | 19 | 4.0 | 11.0 | 0.16 | 0.89 | 0.89 | 84 | 1010.0 |
| 20260507163922 | 53 | 68 | 6.0 | 15.0 | 0.19 | 0.88 | 0.88 | 85 | 1009.9 |
| 20260507162826 | 53 | 360 | 8.0 | 14.0 | 0.21 | 0.86 | 0.86 | 85 | 1009.9 |
| 20260507162411 | 53 | 34 | 7.0 | 16.0 | 0.22 | 0.85 | 0.85 | 85 | 1009.8 |
| 20260507161835 | 53 | 315 | 6.0 | 15.0 | 0.22 | 0.83 | 0.83 | 85 | 1009.8 |
| 20260507160908 | 53 | 19 | 7.0 | 12.0 | 0.23 | 0.80 | 0.80 | 85 | 1010.1 |
| 20260507160408 | 53 | 5 | 7.0 | 10.0 | 0.24 | 0.78 | 0.78 | 85 | 1010.0 |
| 20260507155854 | 53 | 5 | 6.0 | 12.0 | 0.24 | 0.76 | 0.76 | 85 | 1010.0 |
| 20260507155403 | 53 | 44 | 5.0 | 14.0 | 0.24 | 0.75 | 0.75 | 85 | 1009.0 |
| 20260507154858 | 53 | 22 | 5.0 | 14.0 | 0.22 | 0.73 | 0.73 | 85 | 1009.5 |
| 20260507154352 | 53 | 360 | 8.0 | 13.0 | 0.20 | 0.71 | 0.71 | 85 | 1009.8 |
| 20260507153419 | 54 | 360 | 9.0 | 14.0 | 0.16 | 0.67 | 0.67 | 85 | 1010.1 |
| 20260507152916 | 54 | 17 | 7.0 | 11.0 | 0.14 | 0.65 | 0.65 | 85 | 1010.2 |
| 20260507152323 | 55 | 355 | 7.0 | 19.0 | 0.12 | 0.63 | 0.63 | 85 | 1010.2 |
| 20260507151829 | 55 | 40 | 7.0 | 19.0 | 0.11 | 0.61 | 0.61 | 85 | 1010.1 |
| 20260507151340 | 55 | 24 | 8.0 | 15.0 | 0.09 | 0.59 | 0.59 | 85 | 1010.2 |
| 20260507150839 | 55 | 355 | 9.0 | 15.0 | 0.07 | 0.56 | 0.56 | 85 | 1010.2 |
| 20260507150341 | 56 | 355 | 8.0 | 15.0 | 0.05 | 0.54 | 0.54 | 85 | 1010.2 |
| 20260507145900 | 56 | 12 | 7.0 | 15.0 | 0.03 | 0.52 | 0.52 | 85 | 1010.3 |
| 20260507145411 | 56 | 299 | 9.0 | 15.0 | 0.02 | 0.51 | 0.51 | 85 | 1010.3 |
| 20260507144905 | 56 | 55 | 8.0 | 13.0 | 0.02 | 0.51 | 0.51 | 85 | 1010.0 |
| 20260507144325 | 56 | 355 | 8.0 | 15.0 | 0.02 | 0.51 | 0.51 | 85 | 1010.0 |
| 20260507143824 | 57 | 53 | 9.0 | 15.0 | 0.02 | 0.51 | 0.51 | 85 | 1010.0 |
| 20260507143327 | 57 | 25 | 7.0 | 15.0 | 0.03 | 0.51 | 0.51 | 84 | 1009.8 |
| 20260507142844 | 57 | 22 | 8.0 | 15.0 | 0.03 | 0.51 | 0.51 | 85 | 1009.7 |
| 20260507142356 | 57 | 346 | 9.0 | 15.0 | 0.03 | 0.51 | 0.51 | 85 | 1009.9 |
| 20260507141907 | 58 | 16 | 9.0 | 15.0 | 0.02 | 0.50 | 0.50 | 85 | 1009.8 |
| 20260507141335 | 58 | 355 | 7.0 | 15.0 | 0.04 | 0.50 | 0.50 | 84 | 1009.6 |
| 20260507140854 | 58 | 355 | 7.0 | 13.0 | 0.04 | 0.49 | 0.49 | 84 | 1009.5 |
| 20260507140408 | 58 | 337 | 5.0 | 18.0 | 0.06 | 0.49 | 0.49 | 84 | 1009.5 |
| 20260507135346 | 59 | 14 | 7.0 | 14.0 | 0.06 | 0.49 | 0.49 | 84 | 1009.5 |
| 20260507134840 | 59 | 35 | 7.0 | 19.0 | 0.06 | 0.49 | 0.49 | 84 | 1009.5 |
| 20260507134359 | 59 | 31 | 9.0 | 19.0 | 0.06 | 0.49 | 0.49 | 84 | 1009.6 |
| 20260507133333 | 59 | 355 | 6.0 | 16.0 | 0.05 | 0.48 | 0.48 | 84 | 1009.4 |
| 20260507132851 | 59 | 355 | 8.0 | 20.0 | 0.05 | 0.48 | 0.48 | 84 | 1009.3 |
| 20260507132357 | 60 | 344 | 10.0 | 20.0 | 0.06 | 0.48 | 0.48 | 85 | 1009.5 |
| 20260507131902 | 60 | 344 | 9.0 | 15.0 | 0.06 | 0.48 | 0.48 | 84 | 1009.5 |
| 20260507131353 | 61 | 5 | 6.0 | 12.0 | 0.06 | 0.47 | 0.47 | 84 | 1009.4 |
| 20260507130911 | 61 | 360 | 6.0 | 9.0 | 0.05 | 0.45 | 0.45 | 84 | 1009.6 |
| 20260507125919 | 61 | 323 | 5.0 | 11.0 | 0.04 | 0.43 | 0.43 | 84 | 1009.8 |
| 20260507125330 | 61 | 10 | 7.0 | 11.0 | 0.05 | 0.43 | 0.43 | 84 | 1009.6 |
| 20260507124841 | 61 | 347 | 5.0 | 8.0 | 0.06 | 0.43 | 0.43 | 84 | 1009.6 |
| 20260507124350 | 61 | 15 | 5.0 | 9.0 | 0.06 | 0.43 | 0.43 | 84 | 1009.5 |
| 20260507123419 | 61 | 325 | 4.0 | 9.0 | 0.08 | 0.43 | 0.43 | 84 | 1009.6 |
| 20260507122902 | 61 | 340 | 5.0 | 10.0 | 0.09 | 0.43 | 0.43 | 84 | 1009.8 |
| 20260507121838 | 61 | 348 | 4.0 | 12.0 | 0.14 | 0.42 | 0.42 | 84 | 1009.5 |
| 20260507121347 | 61 | 360 | 4.0 | 12.0 | 0.15 | 0.42 | 0.42 | 85 | 1009.7 |
| 20260507120859 | 61 | 322 | 5.0 | 14.0 | 0.16 | 0.41 | 0.41 | 85 | 1009.5 |
| 20260507120349 | 61 | 322 | 6.0 | 14.0 | 0.15 | 0.40 | 0.40 | 85 | 1009.5 |
| 20260507115857 | 61 | 5 | 7.0 | 13.0 | 0.14 | 0.39 | 0.39 | 85 | 1009.6 |
| 20260507115405 | 62 | 309 | 8.0 | 13.0 | 0.14 | 0.38 | 0.38 | 86 | 1009.5 |
| 20260507114853 | 62 | 277 | 4.0 | 12.0 | 0.14 | 0.37 | 0.37 | 86 | 1009.5 |
| 20260507114402 | 63 | 355 | 8.0 | 12.0 | 0.15 | 0.37 | 0.37 | 86 | 1009.3 |
| 20260507113415 | 65 | 360 | 8.0 | 15.0 | 0.19 | 0.35 | 0.35 | 85 | 1008.9 |
| 20260507112922 | 66 | 217 | 1.0 | 6.0 | 0.24 | 0.34 | 0.34 | 84 | 1008.7 |
| 20260507112409 | 67 | 223 | 1.0 | 4.0 | 0.28 | 0.32 | 0.32 | 84 | 1008.8 |
| 20260507111835 | 67 | 156 | 1.0 | 5.0 | 0.24 | 0.27 | 0.27 | 84 | 1008.8 |
| 20260507111344 | 67 | 248 | 2.0 | 5.0 | 0.24 | 0.26 | 0.26 | 84 | 1008.8 |
| 20260507110836 | 67 | 267 | 1.0 | 5.0 | 0.24 | 0.25 | 0.25 | 85 | 1008.7 |
| 20260507110400 | 67 | 210 | 1.0 | 5.0 | 0.24 | 0.25 | 0.25 | 85 | 1008.8 |
| 20260507105909 | 67 | 170 | 1.0 | 5.0 | 0.24 | 0.25 | 0.25 | 85 | 1008.9 |
| 20260507104823 | 67 | 207 | 1.0 | 6.0 | 0.22 | 0.23 | 0.23 | 85 | 1008.5 |
| 20260507104339 | 67 | 225 | 1.0 | 4.0 | 0.21 | 0.22 | 0.22 | 86 | 1008.5 |
| 20260507103847 | 67 | 252 | 0.0 | 2.0 | 0.18 | 0.19 | 0.19 | 86 | 1008.5 |
| 20260507103355 | 67 | 226 | 1.0 | 6.0 | 0.14 | 0.15 | 0.15 | 86 | 1008.5 |
| 20260507102857 | 68 | 258 | 1.0 | 6.0 | 0.08 | 0.09 | 0.09 | 86 | 1008.5 |
| 20260507101836 | 68 | 241 | 0.0 | 4.0 | 0.02 | 0.03 | 0.03 | 86 | 1008.3 |
| 20260507101348 | 68 | 247 | 0.0 | 5.0 | 0.01 | 0.02 | 0.02 | 86 | 1008.3 |
| 20260507100852 | 68 | 218 | 1.0 | 8.0 | 0.00 | 0.01 | 0.01 | 86 | 1008.3 |
| 20260507100357 | 68 | 263 | 2.0 | 8.0 | 0.00 | 0.01 | 0.01 | 86 | 1007.9 |
| 20260507095907 | 68 | 276 | 2.0 | 5.0 | 0.00 | 0.01 | 0.01 | 86 | 1007.8 |
| 20260507095400 | 68 | 186 | 1.0 | 5.0 | 0.00 | 0.01 | 0.01 | 86 | 1007.7 |
| 20260507094926 | 68 | 208 | 1.0 | 5.0 | 0.00 | 0.01 | 0.01 | 86 | 1007.7 |
| 20260507094331 | 68 | 193 | 0.0 | 2.0 | 0.00 | 0.01 | 0.01 | 85 | 1007.4 |
| 20260507093830 | 68 | 223 | 1.0 | 2.0 | 0.00 | 0.01 | 0.01 | 85 | 1007.4 |
| 20260507093336 | 68 | 218 | 1.0 | 4.0 | 0.00 | 0.01 | 0.01 | 85 | 1007.5 |
| 20260507092832 | 69 | 180 | 2.0 | 4.0 | 0.00 | 0.01 | 0.01 | 85 | 1007.5 |
| 20260507092350 | 69 | 253 | 0.0 | 2.0 | 0.00 | 0.01 | 0.01 | 85 | 1007.6 |
| 20260507091850 | 69 | 234 | 0.0 | 5.0 | 0.01 | 0.01 | 0.01 | 84 | 1007.8 |
| 20260507091357 | 69 | 174 | 2.0 | 6.0 | 0.01 | 0.01 | 0.01 | 84 | 1007.9 |
| 20260507090844 | 69 | 214 | 2.0 | 8.0 | 0.01 | 0.01 | 0.01 | 84 | 1007.8 |
| 20260507090354 | 69 | 233 | 2.0 | 9.0 | 0.01 | 0.01 | 0.01 | 83 | 1007.8 |
| 20260507085901 | 69 | 275 | 3.0 | 9.0 | 0.01 | 0.01 | 0.01 | 83 | 1008.0 |
| 20260507085411 | 69 | 195 | 0.0 | 6.0 | 0.01 | 0.01 | 0.01 | 83 | 1008.0 |
| 20260507084904 | 69 | 179 | 2.0 | 7.0 | 0.01 | 0.01 | 0.01 | 83 | 1007.9 |
| 20260507084353 | 69 | 186 | 2.0 | 7.0 | 0.01 | 0.01 | 0.01 | 83 | 1008.3 |
| 20260507083900 | 69 | 228 | 2.0 | 9.0 | 0.01 | 0.01 | 0.01 | 83 | 1008.2 |
| 20260507083414 | 69 | 190 | 3.0 | 9.0 | 0.01 | 0.01 | 0.01 | 83 | 1008.4 |
| 20260507082922 | 69 | 183 | 1.0 | 10.0 | 0.01 | 0.01 | 0.01 | 83 | 1008.4 |
| 20260507082406 | 69 | 197 | 4.0 | 10.0 | 0.01 | 0.01 | 0.01 | 83 | 1008.2 |
| 20260507081907 | 69 | 190 | 2.0 | 7.0 | 0.00 | 0.00 | 0.00 | 83 | 1008.6 |
| 20260507081358 | 69 | 215 | 2.0 | 7.0 | 0.00 | 0.00 | 0.00 | 83 | 1008.7 |
| 20260507080915 | 69 | 224 | 2.0 | 8.0 | 0.00 | 0.00 | 0.00 | 84 | 1008.6 |
| 20260507080419 | 68 | 253 | 3.0 | 8.0 | 0.00 | 0.00 | 0.00 | 84 | 1008.5 |
| 20260507075825 | 68 | 151 | 2.0 | 8.0 | 0.00 | 0.00 | 0.00 | 84 | 1008.8 |
| 20260507075334 | 68 | 183 | 1.0 | 8.0 | 0.00 | 0.00 | 0.00 | 84 | 1008.9 |
| 20260507074856 | 68 | 189 | 2.0 | 8.0 | 0.00 | 0.00 | 0.00 | 84 | 1008.9 |
| 20260507074349 | 68 | 165 | 2.0 | 6.0 | 0.00 | 0.00 | 0.00 | 84 | 1008.9 |
| 20260507073835 | 68 | 232 | 2.0 | 6.0 | 0.00 | 0.00 | 0.00 | 85 | 1008.9 |
| 20260507073341 | 68 | 204 | 2.0 | 6.0 | 0.00 | 0.00 | 0.00 | 84 | 1008.9 |
| 20260507072846 | 68 | 184 | 1.0 | 7.0 | 0.00 | 0.00 | 0.00 | 84 | 1008.9 |
| 20260507072329 | 68 | 248 | 1.0 | 7.0 | 0.00 | 0.00 | 0.00 | 84 | 1008.9 |
| 20260507071831 | 68 | 188 | 1.0 | 6.0 | 0.00 | 0.00 | 0.00 | 84 | 1008.7 |
| 20260507071355 | 68 | 188 | 1.0 | 6.0 | 0.00 | 0.00 | 0.00 | 84 | 1008.3 |
| 20260507070857 | 68 | 180 | 3.0 | 6.0 | 0.00 | 0.00 | 0.00 | 84 | 1008.4 |
| 20260507070414 | 68 | 178 | 1.0 | 5.0 | 0.00 | 0.00 | 0.00 | 84 | 1008.6 |
| 20260507065821 | 69 | 174 | 0.0 | 4.0 | 0.00 | 0.00 | 0.00 | 83 | 1008.3 |
| 20260507065439 | 69 | 184 | 1.0 | 5.0 | 0.00 | 0.00 | 0.00 | 83 | 1007.9 |
| 20260507064831 | 69 | 190 | 1.0 | 6.0 | 0.00 | 0.00 | 0.00 | 83 | 1007.8 |
| 20260507064333 | 69 | 176 | 2.0 | 6.0 | 0.00 | 0.00 | 0.00 | 83 | 1008.1 |
| 20260507063940 | 69 | 191 | 2.0 | 5.0 | 0.00 | 0.00 | 0.00 | 82 | 1007.7 |
| 20260507063329 | 69 | 168 | 3.0 | 0.0 | 0.00 | 0.00 | 0.00 | 82 | 1007.6 |
| 20260507062829 | 69 | 200 | 3.0 | 9.0 | 0.00 | 0.00 | 0.00 | 81 | 1008.3 |
| 20260507062346 | 69 | 182 | 5.0 | 9.0 | 0.00 | 0.00 | 0.00 | 81 | 1008.7 |
| 20260507061337 | 69 | 192 | 1.0 | 7.0 | 0.00 | 0.00 | 0.00 | 81 | 1009.2 |
| 20260507060844 | 70 | 184 | 2.0 | 7.0 | 0.00 | 0.00 | 0.00 | 80 | 1009.2 |
| 20260507060403 | 70 | 246 | 1.0 | 6.0 | 0.00 | 0.00 | 0.00 | 80 | 1009.2 |
| 20260507060112 | 69 | 175 | 0.0 | 7.0 | 0.00 | 0.00 | 0.00 | 79 | 1009.1 |
| 20260507055826 | 70 | 195 | 2.0 | 7.0 | 0.00 | 0.00 | 0.00 | 79 | 1009.2 |
| 20260507055340 | 70 | 188 | 3.0 | 6.0 | 0.00 | 0.00 | 0.00 | 78 | 1009.2 |
| 20260507054833 | 70 | 238 | 2.0 | 6.0 | 0.00 | 0.00 | 0.00 | 77 | 1009.3 |
| 20260507054639 | 70 | 190 | 1.0 | 6.0 | 0.00 | 0.00 | 0.00 | 77 | 1009.2 |
| 20260507054325 | 71 | 206 | 2.0 | 6.0 | 0.00 | 0.00 | 0.00 | 76 | 1009.3 |
| 20260507053841 | 71 | 185 | 1.0 | 6.0 | 0.00 | 0.00 | 0.00 | 75 | 1009.4 |
| 20260507053333 | 71 | 265 | 1.0 | 7.0 | 0.00 | 0.00 | 0.00 | 74 | 1009.3 |
| 20260507053008 | 71 | 242 | 2.0 | 7.0 | 0.00 | 0.00 | 0.00 | 73 | 1009.3 |
| 20260507052829 | 71 | 178 | 2.0 | 7.0 | 0.00 | 0.00 | 0.00 | 73 | 1009.4 |
| 20260507052344 | 71 | 234 | 1.0 | 8.0 | 0.00 | 0.00 | 0.00 | 72 | 1009.4 |
| 20260507051839 | 71 | 182 | 2.0 | 8.0 | 0.00 | 0.00 | 0.00 | 72 | 1009.4 |
| 20260507051513 | 71 | 197 | 2.0 | 7.0 | 0.00 | 0.00 | 0.00 | 71 | 1009.4 |
| 20260507051335 | 71 | 180 | 2.0 | 7.0 | 0.00 | 0.00 | 0.00 | 71 | 1009.4 |
| 20260507050829 | 72 | 216 | 2.0 | 9.0 | 0.00 | 0.00 | 0.00 | 70 | 1009.3 |
| 20260507050024 | 71 | 175 | 0.0 | 9.0 | 0.00 | 0.00 | 0.00 | 69 | 1009.2 |
| 20260507045832 | 72 | 178 | 3.0 | 9.0 | 0.00 | 0.00 | 0.00 | 69 | 1009.2 |
| 20260507045325 | 72 | 186 | 3.0 | 10.0 | 0.00 | 0.00 | 0.00 | 69 | 1009.2 |
| 20260507044841 | 72 | 218 | 4.0 | 10.0 | 0.00 | 0.00 | 0.00 | 68 | 1009.2 |
| 20260507044519 | 71 | 188 | 5.0 | 10.0 | 0.00 | 0.00 | 0.00 | 68 | 1009.3 |
| 20260507044325 | 72 | 181 | 4.0 | 9.0 | 0.00 | 0.00 | 0.00 | 68 | 1009.3 |
| 20260507043841 | 72 | 180 | 3.0 | 9.0 | 0.00 | 0.00 | 0.00 | 68 | 1009.4 |
| 20260507043355 | 72 | 187 | 2.0 | 12.0 | 0.00 | 0.00 | 0.00 | 68 | 1009.4 |
| 20260507043103 | 71 | 212 | 1.0 | 12.0 | 0.00 | 0.00 | 0.00 | 68 | 1009.4 |
| 20260507042826 | 72 | 203 | 1.0 | 12.0 | 0.00 | 0.00 | 0.00 | 68 | 1009.5 |
| 20260507042323 | 72 | 200 | 3.0 | 11.0 | 0.00 | 0.00 | 0.00 | 68 | 1009.5 |
| 20260507041821 | 72 | 220 | 3.0 | 11.0 | 0.00 | 0.00 | 0.00 | 68 | 1009.4 |
| 20260507041615 | 71 | 168 | 5.0 | 11.0 | 0.00 | 0.00 | 0.00 | 68 | 1009.4 |
| 20260507041358 | 72 | 174 | 5.0 | 11.0 | 0.00 | 0.00 | 0.00 | 68 | 1009.4 |
| 20260507040833 | 72 | 194 | 4.0 | 11.0 | 0.00 | 0.00 | 0.00 | 69 | 1009.4 |
| 20260507040331 | 72 | 188 | 5.0 | 11.0 | 0.00 | 0.00 | 0.00 | 69 | 1009.3 |
| 20260507035829 | 72 | 261 | 4.0 | 9.0 | 0.00 | 0.00 | 0.00 | 69 | 1009.3 |
| 20260507035327 | 72 | 153 | 2.0 | 10.0 | 0.00 | 0.00 | 0.00 | 69 | 1009.1 |
| 20260507034856 | 73 | 230 | 3.0 | 10.0 | 0.00 | 0.00 | 0.00 | 70 | 1009.0 |
| 20260507034356 | 73 | 206 | 3.0 | 10.0 | 0.00 | 0.00 | 0.00 | 70 | 1009.1 |
| 20260507033831 | 73 | 172 | 5.0 | 10.0 | 0.00 | 0.00 | 0.00 | 71 | 1009.2 |
| 20260507033348 | 73 | 171 | 3.0 | 9.0 | 0.00 | 0.00 | 0.00 | 71 | 1009.0 |
| 20260507032903 | 73 | 198 | 2.0 | 6.0 | 0.00 | 0.00 | 0.00 | 71 | 1008.8 |
| 20260507032352 | 73 | 199 | 3.0 | 10.0 | 0.00 | 0.00 | 0.00 | 71 | 1008.8 |
| 20260507031941 | 73 | 203 | 5.0 | 10.0 | 0.00 | 0.00 | 0.00 | 71 | 1009.2 |
| 20260507031420 | 73 | 205 | 5.0 | 9.0 | 0.00 | 0.00 | 0.00 | 71 | 1009.3 |
| 20260507030916 | 73 | 229 | 3.0 | 6.0 | 0.00 | 0.00 | 0.00 | 71 | 1009.2 |
| 20260507030414 | 73 | 204 | 1.0 | 5.0 | 0.00 | 0.00 | 0.00 | 72 | 1009.2 |
| 20260507025846 | 73 | 259 | 2.0 | 6.0 | 0.00 | 0.00 | 0.00 | 72 | 1009.3 |
| 20260507025332 | 73 | 244 | 2.0 | 6.0 | 0.00 | 0.00 | 0.00 | 72 | 1009.2 |
| 20260507024844 | 73 | 207 | 1.0 | 5.0 | 0.00 | 0.00 | 0.00 | 72 | 1009.4 |
| 20260507024349 | 74 | 203 | 1.0 | 5.0 | 0.00 | 0.00 | 0.00 | 72 | 1009.4 |
| 20260507023327 | 74 | 191 | 2.0 | 9.0 | 0.00 | 0.00 | 0.00 | 72 | 1009.5 |
| 20260507022836 | 74 | 199 | 1.0 | 6.0 | 0.00 | 0.00 | 0.00 | 72 | 1009.5 |
| 20260507021831 | 74 | 184 | 2.0 | 9.0 | 0.00 | 0.00 | 0.00 | 71 | 1009.4 |
| 20260507021339 | 75 | 206 | 4.0 | 9.0 | 0.00 | 0.00 | 0.00 | 71 | 1009.4 |
| 20260507020854 | 75 | 201 | 4.0 | 10.0 | 0.00 | 0.00 | 0.00 | 72 | 1009.4 |
| 20260507020359 | 74 | 181 | 5.0 | 10.0 | 0.00 | 0.00 | 0.00 | 72 | 1009.4 |
| 20260507015857 | 74 | 190 | 3.0 | 7.0 | 0.00 | 0.00 | 0.00 | 72 | 1009.7 |
| 20260507015352 | 75 | 192 | 2.0 | 6.0 | 0.00 | 0.00 | 0.00 | 72 | 1010.0 |
| 20260507014840 | 75 | 157 | 2.0 | 8.0 | 0.00 | 0.00 | 0.00 | 72 | 1009.9 |
| 20260507014329 | 75 | 202 | 1.0 | 5.0 | 0.00 | 0.00 | 0.00 | 71 | 1009.5 |
| 20260507013846 | 75 | 200 | 2.0 | 6.0 | 0.00 | 0.00 | 0.00 | 70 | 1009.4 |
| 20260507013348 | 75 | 206 | 2.0 | 7.0 | 0.00 | 0.00 | 0.00 | 70 | 1009.3 |
| 20260507012849 | 75 | 180 | 2.0 | 10.0 | 0.00 | 0.00 | 0.00 | 69 | 1009.4 |
| 20260507012400 | 75 | 225 | 3.0 | 10.0 | 0.00 | 0.00 | 0.00 | 68 | 1009.5 |
| 20260507011905 | 75 | 190 | 1.0 | 5.0 | 0.00 | 0.00 | 0.00 | 67 | 1009.4 |
| 20260507011413 | 75 | 192 | 1.0 | 5.0 | 0.00 | 0.00 | 0.00 | 66 | 1009.4 |
| 20260507010914 | 75 | 209 | 2.0 | 5.0 | 0.00 | 0.00 | 0.00 | 65 | 1009.8 |
| 20260507010410 | 75 | 186 | 2.0 | 5.0 | 0.00 | 0.00 | 0.00 | 64 | 1009.7 |
| 20260507005338 | 75 | 192 | 2.0 | 5.0 | 0.00 | 0.00 | 0.00 | 63 | 1009.5 |
| 20260507004421 | 76 | 234 | 1.0 | 8.0 | 0.00 | 0.00 | 0.00 | 62 | 1009.4 |
| 20260507003922 | 76 | 195 | 1.0 | 8.0 | 0.00 | 0.00 | 0.00 | 62 | 1009.4 |
| 20260507003338 | 76 | 180 | 1.0 | 5.0 | 0.00 | 0.00 | 0.00 | 62 | 1009.3 |
| 20260507002844 | 76 | 200 | 1.0 | 5.0 | 0.00 | 0.00 | 0.00 | 61 | 1009.3 |
| 20260507002413 | 76 | 207 | 1.0 | 6.0 | 0.00 | 0.00 | 0.00 | 61 | 1009.3 |
| 20260507001837 | 76 | 173 | 2.0 | 6.0 | 0.00 | 0.00 | 0.00 | 61 | 1009.3 |
| 20260507001330 | 76 | 192 | 1.0 | 7.0 | 0.00 | 0.00 | 0.00 | 61 | 1009.3 |
| 20260507000823 | 76 | 188 | 2.0 | 7.0 | 0.00 | 0.00 | 0.00 | 60 | 1009.1 |
| 20260507000330 | 76 | 190 | 1.0 | 6.0 | 0.00 | 0.00 | 0.00 | 60 | 1009.2 |
| 20260506235849 | 77 | 182 | 2.0 | 8.0 | 0.00 | 0.00 | 0.00 | 60 | 1009.2 |
| 20260506235417 | 77 | 200 | 3.0 | 8.0 | 0.00 | 0.00 | 0.00 | 60 | 1009.2 |
| 20260506234922 | 77 | 192 | 2.0 | 7.0 | 0.00 | 0.00 | 0.00 | 59 | 1009.2 |
| 20260506234413 | 77 | 221 | 2.0 | 8.0 | 0.00 | 0.00 | 0.00 | 59 | 1009.1 |
| 20260506233835 | 77 | 234 | 3.0 | 8.0 | 0.00 | 0.00 | 0.00 | 59 | 1008.8 |
| 20260506233409 | 77 | 180 | 3.0 | 9.0 | 0.00 | 0.00 | 0.00 | 58 | 1008.8 |
| 20260506232342 | 77 | 167 | 1.0 | 7.0 | 0.00 | 0.00 | 0.00 | 58 | 1008.7 |
| 20260506231912 | 78 | 178 | 3.0 | 8.0 | 0.00 | 0.00 | 0.00 | 58 | 1008.7 |
| 20260506231407 | 78 | 220 | 3.0 | 10.0 | 0.00 | 0.00 | 0.00 | 57 | 1008.6 |
| 20260506230902 | 78 | 255 | 2.0 | 10.0 | 0.00 | 0.00 | 0.00 | 57 | 1008.6 |
| 20260506225923 | 78 | 191 | 3.0 | 8.0 | 0.00 | 0.00 | 0.00 | 57 | 1008.6 |
| 20260506225418 | 78 | 190 | 2.0 | 8.0 | 0.00 | 0.00 | 0.00 | 57 | 1008.5 |
| 20260506224916 | 78 | 236 | 2.0 | 10.0 | 0.00 | 0.00 | 0.00 | 57 | 1008.4 |
| 20260506224328 | 78 | 198 | 1.0 | 12.0 | 0.00 | 0.00 | 0.00 | 57 | 1008.4 |
| 20260506223825 | 78 | 257 | 3.0 | 12.0 | 0.00 | 0.00 | 0.00 | 57 | 1008.6 |
| 20260506223332 | 79 | 157 | 2.0 | 11.0 | 0.00 | 0.00 | 0.00 | 58 | 1008.6 |
| 20260506222833 | 79 | 183 | 5.0 | 11.0 | 0.00 | 0.00 | 0.00 | 58 | 1008.5 |
| 20260506222400 | 79 | 173 | 3.0 | 9.0 | 0.00 | 0.00 | 0.00 | 58 | 1008.6 |
| 20260506221913 | 79 | 178 | 3.0 | 9.0 | 0.00 | 0.00 | 0.00 | 58 | 1008.6 |
| 20260506221439 | 79 | 171 | 4.0 | 0.0 | 0.00 | 0.00 | 0.00 | 58 | 1008.6 |
| 20260506220847 | 79 | 182 | 2.0 | 11.0 | 0.00 | 0.00 | 0.00 | 58 | 1008.6 |
| 20260506220403 | 79 | 222 | 5.0 | 14.0 | 0.00 | 0.00 | 0.00 | 58 | 1008.5 |
| 20260506215930 | 79 | 207 | 6.0 | 14.0 | 0.00 | 0.00 | 0.00 | 58 | 1008.4 |
| 20260506214926 | 79 | 254 | 4.0 | 15.0 | 0.00 | 0.00 | 0.00 | 58 | 1008.7 |
| 20260506214329 | 79 | 187 | 2.0 | 14.0 | 0.00 | 0.00 | 0.00 | 58 | 1008.5 |
| 20260506213934 | 79 | 200 | 5.0 | 13.0 | 0.00 | 0.00 | 0.00 | 58 | 1008.5 |
| 20260506213403 | 79 | 190 | 4.0 | 16.0 | 0.00 | 0.00 | 0.00 | 58 | 1008.3 |
| 20260506212906 | 79 | 163 | 4.0 | 16.0 | 0.00 | 0.00 | 0.00 | 57 | 1008.1 |
| 20260506212355 | 79 | 249 | 7.0 | 21.0 | 0.00 | 0.00 | 0.00 | 57 | 1008.2 |
| 20260506211435 | 79 | 179 | 8.0 | 20.0 | 0.00 | 0.00 | 0.00 | 56 | 1008.4 |
| 20260506210822 | 79 | 264 | 7.0 | 15.0 | 0.00 | 0.00 | 0.00 | 57 | 1008.6 |
| 20260506205836 | 79 | 268 | 4.0 | 12.0 | 0.00 | 0.00 | 0.00 | 58 | 1008.5 |
| 20260506205342 | 78 | 242 | 4.0 | 15.0 | 0.00 | 0.00 | 0.00 | 58 | 1008.6 |
| 20260506204911 | 79 | 177 | 8.0 | 19.0 | 0.00 | 0.00 | 0.00 | 57 | 1008.6 |
| 20260506204412 | 79 | 180 | 6.0 | 19.0 | 0.00 | 0.00 | 0.00 | 57 | 1008.6 |
| 20260506203923 | 79 | 179 | 6.0 | 15.0 | 0.00 | 0.00 | 0.00 | 57 | 1008.9 |
| 20260506203407 | 79 | 171 | 3.0 | 15.0 | 0.00 | 0.00 | 0.00 | 58 | 1009.0 |
| 20260506202900 | 79 | 94 | 6.0 | 13.0 | 0.00 | 0.00 | 0.00 | 57 | 1009.2 |
| 20260506201832 | 79 | 207 | 4.0 | 16.0 | 0.00 | 0.00 | 0.00 | 59 | 1009.4 |
| 20260506201340 | 79 | 205 | 6.0 | 27.0 | 0.00 | 0.00 | 0.00 | 58 | 1009.6 |
| 20260506200852 | 79 | 212 | 10.0 | 27.0 | 0.00 | 0.00 | 0.00 | 58 | 1009.7 |
| 20260506200412 | 79 | 189 | 5.0 | 12.0 | 0.00 | 0.00 | 0.00 | 59 | 1009.7 |
| 20260506195823 | 79 | 189 | 3.0 | 13.0 | 0.00 | 0.00 | 0.00 | 60 | 1009.8 |
| 20260506195331 | 79 | 263 | 5.0 | 13.0 | 0.00 | 0.00 | 0.00 | 60 | 1009.9 |
| 20260506194938 | 79 | 213 | 5.0 | 13.0 | 0.00 | 0.00 | 0.00 | 61 | 1010.0 |
| 20260506194420 | 79 | 180 | 5.0 | 15.0 | 0.00 | 0.00 | 0.00 | 60 | 1010.0 |
| 20260506193915 | 79 | 238 | 4.0 | 15.0 | 0.00 | 0.00 | 0.00 | 61 | 1010.0 |
| 20260506192847 | 79 | 196 | 3.0 | 16.0 | 0.00 | 0.00 | 0.00 | 61 | 1010.0 |
| 20260506192355 | 78 | 232 | 4.0 | 16.0 | 0.00 | 0.00 | 0.00 | 62 | 1010.1 |
| 20260506191417 | 77 | 203 | 4.0 | 15.0 | 0.00 | 0.00 | 0.00 | 62 | 1010.1 |
| 20260506190344 | 77 | 200 | 4.0 | 21.0 | 0.00 | 0.00 | 0.00 | 62 | 1010.3 |
| 20260506185845 | 77 | 231 | 9.0 | 21.0 | 0.00 | 0.00 | 0.00 | 61 | 1010.4 |
| 20260506185348 | 77 | 234 | 7.0 | 21.0 | 0.00 | 0.00 | 0.00 | 61 | 1010.3 |
| 20260506184850 | 77 | 197 | 5.0 | 16.0 | 0.00 | 0.00 | 0.00 | 60 | 1010.4 |
| 20260506184412 | 78 | 184 | 5.0 | 16.0 | 0.00 | 0.00 | 0.00 | 60 | 1010.5 |
| 20260506183337 | 78 | 240 | 3.0 | 19.0 | 0.00 | 0.00 | 0.00 | 60 | 1010.7 |
| 20260506182833 | 77 | 171 | 9.0 | 22.0 | 0.00 | 0.00 | 0.00 | 59 | 1010.6 |
| 20260506182347 | 77 | 164 | 9.0 | 22.0 | 0.00 | 0.00 | 0.00 | 59 | 1010.9 |
| 20260506181901 | 77 | 165 | 9.0 | 20.0 | 0.00 | 0.00 | 0.00 | 59 | 1011.0 |
| 20260506180830 | 78 | 202 | 9.0 | 21.0 | 0.00 | 0.00 | 0.00 | 58 | 1011.0 |
| 20260506180351 | 78 | 196 | 8.0 | 21.0 | 0.00 | 0.00 | 0.00 | 57 | 1011.0 |
| 20260506175853 | 79 | 187 | 8.0 | 18.0 | 0.00 | 0.00 | 0.00 | 57 | 1011.1 |
| 20260506175336 | 78 | 245 | 6.0 | 25.0 | 0.00 | 0.00 | 0.00 | 58 | 1011.3 |
| 20260506174842 | 78 | 210 | 8.0 | 25.0 | 0.00 | 0.00 | 0.00 | 60 | 1011.5 |
| 20260506174347 | 78 | 191 | 6.0 | 20.0 | 0.00 | 0.00 | 0.00 | 61 | 1011.7 |
| 20260506173900 | 77 | 219 | 9.0 | 16.0 | 0.00 | 0.00 | 0.00 | 62 | 1011.8 |
| 20260506173342 | 77 | 234 | 5.0 | 11.0 | 0.00 | 0.00 | 0.00 | 64 | 1011.7 |
| 20260506172844 | 76 | 200 | 6.0 | 12.0 | 0.00 | 0.00 | 0.00 | 63 | 1011.8 |
| 20260506172404 | 76 | 234 | 6.0 | 13.0 | 0.00 | 0.00 | 0.00 | 63 | 1011.9 |